Terug naar catalogus

FENGYUN 2F AKM

ActiefGEO
NORAD 38072·ROCKET BODY·🇨🇳 China

Gelanceerd Jan 13, 2012 vanaf Xichang Satellite Launch Center

Loading…

TLE

VersSource: Space-Track

Epoch: Sep 14, 2026, 10:50 UTC

1 38072U 12002C   26257.45205795 -.00000133  00000-0  00000-0 0  9992
2 38072   9.3727  56.8411 0062488 207.8579 350.1938  0.99392415 52728

Volg FENGYUN 2F AKM in realtime met AllMySat

Download on the App Store